Upernavik Sermeq

KL  EN  DA
ASIAQ
Weather Now GREENLAND SURVEY
Updated [WGT/WGST] Temperature [°C] Wind [m/s] Air pressure [hPa] Relative humidity [%] Precipitation [mm]
Present Wind chill Speed Max
24.09 02:00-4,80,05,6 ⇖n/a99763n/a
24.09 01:00-4,60,05,0 ⇖n/a99763n/a
24.09 00:00-4,50,04,4 ⇖n/a99864n/a
23.09 23:00-4,60,04,8 ⇖n/a99864n/a
23.09 22:00-4,50,04,9 ⇖n/a99867n/a
23.09 21:00-4,40,03,9 ⇖n/a99875n/a
23.09 20:00-4,20,03,9 ⇖n/a99880n/a
23.09 19:00-4,00,03,7 ⇖n/a99876n/a
23.09 18:00-3,40,03,9 ⇖n/a99870n/a
23.09 17:00-3,60,04,1 ⇖n/a99874n/a
23.09 16:00-3,60,03,7 ⇖n/a99775n/a
23.09 15:00-3,50,04,3 ⇖n/a99772n/a
23.09 14:00-3,50,04,4 ⇖n/a99769n/a
23.09 13:00-3,80,04,7 ⇖n/a99765n/a
23.09 12:00-4,10,04,7 ⇖n/a99767n/a
23.09 11:00-4,30,05,2 ⇖n/a99765n/a
23.09 10:00-4,60,05,5 ⇖n/a99668n/a
23.09 09:00-4,30,05,7 ⇖n/a99568n/a
23.09 08:00-4,30,06,1 ⇖n/a99568n/a
23.09 07:00-4,40,06,5 ⇖n/a99576n/a
23.09 06:00-4,70,07,1 ⇖n/a99494n/a
23.09 05:00-4,20,05,5 ⇖n/a99479n/a
23.09 04:00-3,80,04,3 ⇖n/a99472n/a
23.09 03:00-3,50,03,5 ⇖n/a99475n/a
23.09 02:00-4,10,04,8 ⇖n/a99379n/a
Position: (72.8932,-54.2955)

[Back]